Total_Precipitation_Accumulation
0.00 0.00 0.01 0.00 0.00 0.00 0.00 0.00 0.00 0.00 0.00 0.02 0.02 0.02 0.01 0.01 0.00 0.00 0.00 0.00 0.00 0.00 0.00 0.01 0.01 0.01 0.01 0.01 0.01 0.01 0.01 0.01 0.00 0.00 0.01 0.03 0.04 0.03 0.05 0.05 0.12 0.15 0.12
0.00 0.00 0.01 0.00 0.00 0.00 0.00 0.00 0.00 0.00 0.00 0.01 0.02 0.03 0.03 0.02 0.01 0.01 0.00 0.00 0.00 0.01 0.01 0.01 0.01 0.01 0.01 0.00 0.00 0.00 0.00 0.00 0.00 0.00 0.01 0.02 0.02 0.02 0.03 0.04 0.13 0.18 0.08
0.00 0.00 0.00 0.00 0.00 0.00 0.00 0.00 0.00 0.00 0.00 0.01 0.01 0.02 0.02 0.01 0.01 0.00 0.00 0.00 0.00 0.00 0.01 0.01 0.01 0.01 0.01 0.00 0.00 0.00 0.00 0.00 0.00 0.01 0.05 0.09 0.03 0.02 0.02 0.03 0.06 0.05 0.03
0.00 0.00 0.00 0.00 0.00 0.00 0.00 0.00 0.00 0.00 0.00 0.00 0.00 0.00 0.00 0.00 0.00 0.00 0.00 0.00 0.00 0.01 0.01 0.01 0.01 0.01 0.01 0.00 0.00 0.01 0.01 0.01 0.01 0.03 0.17 0.17 0.11 0.04 0.02 0.01 0.00 0.01 0.02
0.00 0.00 0.00 0.00 0.00 0.00 0.00 0.00 0.00 0.01 0.01 0.01 0.00 0.00 0.00 0.00 0.00 0.00 0.01 0.01 0.01 0.02 0.02 0.01 0.02 0.02 0.01 0.01 0.01 0.01 0.01 0.01 0.02 0.04 0.11 0.19 0.32 0.12 0.03 0.01 0.01 0.01 0.01
0.00 0.00 0.00 0.01 0.00 0.00 0.00 0.00 0.00 0.01 0.01 0.01 0.01 0.00 0.01 0.01 0.01 0.01 0.01 0.01 0.02 0.03 0.02 0.01 0.02 0.02 0.01 0.01 0.01 0.01 0.01 0.01 0.02 0.04 0.05 0.13 0.23 0.14 0.06 0.02 0.01 0.02 0.01
0.00 0.00 0.00 0.01 0.01 0.01 0.01 0.01 0.01 0.01 0.01 0.01 0.01 0.01 0.01 0.01 0.01 0.01 0.01 0.02 0.02 0.03 0.02 0.01 0.01 0.01 0.01 0.01 0.00 0.00 0.01 0.00 0.01 0.05 0.03 0.04 0.09 0.09 0.07 0.03 0.02 0.03 0.02
0.00 0.00 0.01 0.02 0.02 0.01 0.01 0.01 0.01 0.01 0.01 0.01 0.01 0.00 0.00 0.01 0.01 0.01 0.01 0.01 0.01 0.02 0.01 0.01 0.00 0.01 0.01 0.01 0.01 0.00 0.01 0.01 0.01 0.01 0.02 0.04 0.05 0.09 0.13 0.07 0.03 0.03 0.02
0.00 0.00 0.01 0.02 0.03 0.03 0.02 0.02 0.02 0.02 0.02 0.02 0.01 0.01 0.01 0.01 0.01 0.01 0.01 0.01 0.01 0.01 0.01 0.00 0.00 0.00 0.01 0.01 0.01 0.01 0.01 0.02 0.02 0.03 0.01 0.04 0.05 0.11 0.32 0.28 0.13 0.05 0.03
0.01 0.01 0.02 0.04 0.05 0.06 0.05 0.05 0.04 0.05 0.04 0.03 0.02 0.01 0.01 0.01 0.01 0.01 0.00 0.00 0.01 0.01 0.01 0.01 0.01 0.01 0.01 0.03 0.06 0.07 0.07 0.06 0.05 0.07 0.04 0.03 0.05 0.12 0.37 0.54 0.47 0.31 0.15
0.01 0.02 0.03 0.04 0.06 0.07 0.08 0.10 0.12 0.13 0.13 0.12 0.09 0.05 0.02 0.01 0.01 0.01 0.00 0.01 0.05 0.09 0.11 0.11 0.10 0.09 0.10 0.09 0.13 0.21 0.23 0.14 0.13 0.14 0.12 0.10 0.14 0.20 0.42 0.63 0.65 0.63 0.53
0.01 0.02 0.03 0.04 0.05 0.06 0.09 0.22 0.29 0.28 0.31 0.26 0.26 0.24 0.17 0.11 0.07 0.04 0.04 0.12 0.22 0.31 0.31 0.30 0.37 0.45 0.42 0.29 0.33 0.39 0.20 0.15 0.19 0.15 0.15 0.19 0.22 0.25 0.38 0.62 0.67 0.64 0.65
0.02 0.03 0.03 0.04 0.04 0.05 0.09 0.19 0.33 0.37 0.44 0.42 0.46 0.49 0.51 0.48 0.33 0.25 0.28 0.44 0.51 0.58 0.50 0.58 0.78 0.64 0.58 0.61 0.68 0.63 0.47 0.32 0.19 0.11 0.09 0.21 0.30 0.33 0.43 0.59 0.61 0.58 0.57
0.07 0.12 0.16 0.15 0.12 0.09 0.11 0.18 0.25 0.28 0.35 0.43 0.54 0.65 0.73 0.68 0.68 0.66 0.67 0.72 0.74 0.74 0.74 0.74 0.74 0.75 0.92 1.02 0.89 0.76 0.67 0.50 0.36 0.32 0.25 0.27 0.38 0.47 0.55 0.59 0.56 0.51 0.51
0.29 0.37 0.38 0.33 0.25 0.17 0.16 0.17 0.19 0.26 0.33 0.44 0.57 0.62 0.71 0.89 0.99 0.97 0.81 0.75 0.75 0.83 0.98 1.13 1.08 1.21 1.30 1.17 0.90 0.77 0.74 0.63 0.47 0.35 0.28 0.35 0.58 0.63 0.55 0.51 0.51 0.51 0.53
0.59 0.63 0.62 0.52 0.38 0.32 0.30 0.31 0.35 0.39 0.44 0.50 0.54 0.64 0.81 0.93 1.04 0.99 0.95 0.94 0.94 0.90 0.95 1.19 1.23 1.20 1.08 0.90 0.63 0.51 0.50 0.51 0.44 0.34 0.24 0.31 0.43 0.41 0.39 0.45 0.51 0.58 0.61
1.30 1.13 0.84 0.65 0.59 0.60 0.67 0.69 0.65 0.60 0.56 0.58 0.58 0.65 0.74 0.80 0.88 0.90 0.88 0.84 0.86 0.85 0.83 0.89 0.98 0.99 0.82 0.64 0.50 0.44 0.39 0.39 0.37 0.38 0.30 0.28 0.32 0.35 0.27 0.26 0.31 0.42 0.55
2.23 1.87 1.33 1.15 1.24 1.17 1.07 0.84 0.68 0.61 0.55 0.49 0.46 0.47 0.51 0.53 0.54 0.56 0.54 0.51 0.54 0.52 0.53 0.58 0.62 0.64 0.60 0.56 0.56 0.53 0.47 0.47 0.40 0.43 0.41 0.35 0.32 0.33 0.37 0.27 0.23 0.24 0.32
2.76 2.66 2.12 1.99 2.05 1.56 0.98 0.67 0.52 0.46 0.38 0.34 0.36 0.33 0.34 0.36 0.37 0.40 0.38 0.36 0.35 0.33 0.33 0.34 0.39 0.43 0.44 0.44 0.41 0.40 0.37 0.34 0.30 0.28 0.30 0.22 0.19 0.18 0.26 0.33 0.26 0.23 0.24
2.01 1.97 1.86 1.87 1.53 1.02 0.60 0.41 0.30 0.27 0.23 0.21 0.24 0.25 0.26 0.29 0.31 0.34 0.31 0.29 0.27 0.24 0.25 0.29 0.30 0.31 0.30 0.30 0.21 0.19 0.22 0.17 0.16 0.13 0.13 0.10 0.10 0.10 0.14 0.23 0.21 0.16 0.18
0.82 0.84 0.96 0.93 0.82 0.52 0.36 0.23 0.16 0.14 0.13 0.13 0.16 0.15 0.19 0.23 0.27 0.33 0.27 0.29 0.26 0.21 0.20 0.21 0.21 0.21 0.19 0.17 0.16 0.12 0.09 0.08 0.08 0.06 0.05 0.07 0.07 0.08 0.09 0.13 0.12 0.11 0.12
0.38 0.44 0.47 0.48 0.40 0.24 0.17 0.15 0.13 0.11 0.08 0.07 0.07 0.09 0.09 0.12 0.17 0.23 0.30 0.24 0.23 0.22 0.20 0.17 0.17 0.16 0.14 0.13 0.13 0.10 0.06 0.05 0.05 0.02 0.06 0.06 0.06 0.10 0.09 0.07 0.05 0.07 0.09
0.45 0.39 0.24 0.24 0.19 0.12 0.10 0.10 0.09 0.09 0.09 0.09 0.07 0.07 0.08 0.07 0.09 0.14 0.21 0.23 0.25 0.21 0.23 0.24 0.20 0.17 0.12 0.09 0.08 0.08 0.06 0.04 0.03 0.02 0.03 0.03 0.04 0.08 0.08 0.07 0.07 0.09 0.12
0.26 0.26 0.20 0.19 0.18 0.11 0.08 0.07 0.06 0.06 0.07 0.07 0.07 0.06 0.06 0.06 0.07 0.08 0.10 0.15 0.22 0.24 0.30 0.21 0.20 0.19 0.15 0.09 0.07 0.06 0.04 0.04 0.05 0.05 0.04 0.01 0.05 0.09 0.07 0.04 0.07 0.10 0.10
0.05 0.11 0.14 0.20 0.25 0.17 0.13 0.09 0.08 0.06 0.05 0.06 0.06 0.07 0.08 0.10 0.11 0.12 0.12 0.11 0.12 0.18 0.26 0.28 0.31 0.24 0.21 0.14 0.09 0.07 0.07 0.04 0.03 0.04 0.06 0.05 0.05 0.03 0.03 0.05 0.09 0.15 0.10
0.04 0.06 0.08 0.14 0.19 0.17 0.14 0.13 0.14 0.14 0.13 0.11 0.11 0.11 0.14 0.17 0.19 0.19 0.19 0.20 0.19 0.17 0.17 0.19 0.23 0.27 0.28 0.25 0.15 0.08 0.08 0.06 0.03 0.03 0.03 0.05 0.09 0.04 0.04 0.06 0.12 0.18 0.14